Weather History for Rome, OR

Change the Weather History Date:

Thursday, December 6, 2012

  Actual Average Record
Temperature  
Mean Temperature 35 °F 29 °F  
Max Temperature 49 °F 40 °F 63 °F (1987)
Min Temperature 21 °F 19 °F 0 °F (1992)
Degree Days  
Heating Degree Days 30 36  
Month to date heating degree days 136 210  
Since 1 July heating degree days 1427 1823  
Cooling Degree Days 0 0  
Month to date cooling degree days 0 0  
Year to date cooling degree days 674 507  
Moisture  
Dew Point 28 °F    
Average Humidity 71    
Maximum Humidity 92    
Minimum Humidity 50    
Precipitation  
Precipitation 0.00 in 0.03 in 0.39 in (1975)
Month to date precipitation 0.23 0.14  
Year to date precipitation 5.11 8.24  
Sea Level Pressure  
Sea Level Pressure 30.12 in    
Wind  
Wind Speed 5 mph (ENE)    
Max Wind Speed 15 mph    
Max Gust Speed 20 mph    
T = Trace of Precipitation, MM = Missing Value Source: NWS Daily Summary

Daily Weather History Graph

Daily Weather History Graph

Search for Another Location

Airport:

Trip Planner

Search our weather history database for the weather conditions in past years. The results will help you decide how hot, cold, wet, or windy it might be!

Date:

Astronomy

Dec. 06, 2012 Rise Set
Actual Time 7:07 AM PST 4:18 PM PST
Civil Twilight 6:35 AM PST 4:49 PM PST
Nautical Twilight 6:00 AM PST 5:25 PM PST
Astronomical Twilight 5:26 AM PST 5:59 PM PST
Moon No Moon Rise 11:54 AM PST (12/6)
Length of Visible Light 10h 14m
Length of Day
9h 10m
Waning Gibbous, 48% of the Moon is Illuminated
Dec 6
Waning Gibbous
Dec 13
New
Dec 19
First Quarter
Dec 28
Full
Jan 4
Last Quarter

Hourly Weather History & Observations

Time (PST) Temp. Windchill Dew Point Humidity Pressure Visibility Wind Dir Wind Speed Gust Speed Precip Events Conditions
12:52 AM 28.9 °F - 26.1 °F 89% 30.09 in - Calm Calm - N/A   Unknown
1:52 AM 28.9 °F 25.2 °F 26.1 °F 89% 30.09 in - East 3.5 mph - N/A   Unknown
2:52 AM 28.9 °F 25.2 °F 26.1 °F 89% 30.10 in - ESE 3.5 mph - N/A   Unknown
3:52 AM 28.9 °F 22.8 °F 26.1 °F 89% 30.10 in - NE 5.8 mph - N/A   Unknown
4:52 AM 26.1 °F - 24.1 °F 92% 30.12 in - Calm Calm - N/A   Unknown
5:52 AM 24.1 °F - 21.9 °F 91% 30.14 in - Calm Calm - N/A   Unknown
6:52 AM 24.1 °F 19.7 °F 23.0 °F 96% 30.13 in - South 3.5 mph - N/A   Unknown
7:52 AM 27.0 °F 21.6 °F 25.0 °F 92% 30.13 in - WSW 4.6 mph - N/A   Unknown
8:52 AM 33.1 °F - 30.0 °F 89% 30.13 in - Calm Calm - N/A   Unknown
9:52 AM 37.0 °F 33.3 °F 32.0 °F 82% 30.14 in - WSW 4.6 mph - N/A   Unknown
10:52 AM 41.0 °F 38.0 °F 32.0 °F 70% 30.11 in - WSW 4.6 mph - N/A   Unknown
11:52 AM 44.1 °F 39.0 °F 30.9 °F 60% 30.08 in - SW 9.2 mph - N/A   Unknown
12:52 PM 48.0 °F - 30.0 °F 50% 30.06 in - SW 10.4 mph - N/A   Unknown
1:52 PM 46.9 °F - 30.0 °F 52% 30.05 in - NW 8.1 mph - N/A   Unknown
2:52 PM 43.0 °F 35.7 °F 30.9 °F 62% 30.06 in - North 15.0 mph - N/A   Unknown
3:52 PM 42.1 °F 37.7 °F 32.0 °F 67% 30.09 in - NE 6.9 mph - N/A   Unknown
4:52 PM 37.9 °F 33.5 °F 30.9 °F 76% 30.10 in - ENE 5.8 mph - N/A   Unknown
5:52 PM 37.0 °F 31.6 °F 30.9 °F 79% 30.12 in - East 6.9 mph - N/A   Unknown
6:52 PM 32.0 °F - 28.9 °F 88% 30.16 in - Calm Calm - N/A   Unknown
7:52 PM 33.1 °F 28.7 °F 28.0 °F 82% 30.16 in - NE 4.6 mph - N/A   Unknown
8:52 PM 30.9 °F 26.2 °F 28.0 °F 89% 30.17 in - NE 4.6 mph - N/A   Unknown
9:52 PM 32.0 °F 24.2 °F 28.0 °F 85% 30.17 in - East 9.2 mph - N/A   Unknown
10:52 PM 33.1 °F 26.1 °F 27.0 °F 78% 30.16 in - East 8.1 mph - N/A   Unknown
11:52 PM 32.0 °F 24.2 °F 26.1 °F 79% 30.16 in - ENE 9.2 mph - N/A   Unknown